User: anonymous   Login
Location: Brno
(49.2000°N, 16.6330°E)
Time: 03:58:44
(UTC+01:00)
Language:

Cosmos 332 Rocket - Orbit

View from above orbital plane
View from above orbital plane
View from above satellite
View from above satellite

Ground track
Ground track

The orbit data is extracted from the following two-line orbital elements,

1 04370U 70028B   14356.19391841  .00001014  00000-0  22014-3 0  8230
2 04370 074.0405 020.5402 0015146 175.0968 248.6918 14.59355769879503
Epoch (UTC): 22 December 2014 04:39:14
Eccentricity: 0.0015146
inclination: 74.0405°
perigee height: 684 km
apogee height: 706 km
right ascension of ascending node: 20.5402°
argument of perigee: 175.0968°
revolutions per day: 14.59355769
mean anomaly at epoch: 248.6918°
orbit number at epoch: 87950

The dashed part of the orbit path shows where the satellite is in the earth's shadow,  

DLR